[[{"header":{"parameterUnit":"m.s-1","parameterCategory":1,"la1":30.2991,"la2":30.254,"lo1":-89.0895,"lo2":-89.0444,"dy":0.0017,"dx":0.0017,"nx":28,"ny":28,"refTime":"2024-03-25T03:00:00:Z","depth":0,"parameterNumber":2,"parameterNumberName":"U-component_of_WINDS"},"data":[0,0,0,0,0,0,0,0,0,0,0,0,0,0,0,0,0,0,0,0,0,0,0,0,0,0,0,0,0,0,0,0,0,0,0,0,0,0,0,0,0,0,0,0,0,0,0,0,0,0,0,0,0,0,0,0,0,0,-5.8917,-5.8919,0,-5.9031,-5.9032,-5.9033,-5.9056,-5.9055,-5.9054,-5.9053,-5.9168,-5.9172,-5.9176,0,0,0,0,0,0,0,0,0,0,0,0,0,-5.872,-5.8723,-5.8917,-5.8919,-5.892,-5.9031,-5.9032,-5.9034,-5.9056,-5.9055,-5.9054,-5.9053,-5.9167,-5.9171,-5.9176,0,0,0,0,0,0,0,0,0,0,0,0,0,-5.8817,-5.8725,-5.8917,-5.8945,-5.8948,-5.903,-5.9032,-5.9034,-5.9056,-5.9055,-5.9053,-5.9052,-5.9165,-5.9171,-5.9177,-5.9239,0,0,-5.9194,-5.9197,0,0,0,0,0,0,0,0,-5.8811,-5.8824,-5.8939,-5.8943,-5.8947,-5.9028,-5.9005,-5.9103,-5.9056,-5.9015,-5.9053,-5.9051,-5.9122,-5.9132,-5.9156,-5.9245,-5.9249,-5.9195,-5.9198,-5.9201,-5.9203,0,0,0,0,0,0,0,-5.8804,-5.8819,-5.8962,-5.8941,-5.8946,-5.8951,-5.8963,-5.9023,-5.9075,-5.9018,-5.902,-5.9034,-5.9124,-5.915,-5.9159,-5.9251,-5.9195,-5.92,-5.9204,-5.9206,-5.9398,-5.9399,0,0,0,0,0,0,-5.8793,-5.8813,-5.8959,-5.8966,-5.8874,-5.8956,-5.897,-5.9003,-5.9074,-5.9084,-5.9035,-5.9034,-5.9141,-5.9152,-5.9163,-5.924,-5.9201,-5.9206,-5.921,-5.9396,-5.9398,-5.94,0,0,0,0,0,0,-5.8789,-5.8806,-5.8954,-5.889,-5.891,-5.8961,-5.8998,-5.9006,-5.9032,-5.9086,-5.9095,-5.9052,-5.914,-5.9155,-5.922,-5.9245,-5.9209,-5.9214,-5.9394,-5.9397,-5.9399,-5.9396,0,0,0,0,0,0,-5.8783,-5.8804,-5.8828,-5.8891,-5.8913,-5.9009,-5.9,-5.9009,-5.9042,-5.9043,-5.9105,-5.9114,-5.914,-5.9211,-5.9226,-5.9252,-5.9219,-5.9392,-5.9395,-5.9398,-5.9394,-5.9398,-5.9401,0,0,0,0,0,-5.8776,-5.8822,-5.8829,-5.8847,-5.8944,-5.9011,-5.9024,-5.9053,-5.9044,-5.9069,-5.9104,-5.9112,-5.924,-5.9218,-5.9235,-5.9263,-5.9391,-5.9395,-5.9398,-5.9392,-5.9397,-5.9401,0,0,0,0,0,0,-5.8761,-5.8831,-5.8839,-5.8908,-5.8953,-5.9014,-5.9046,-5.9058,-5.9106,-5.9105,-5.914,-5.9154,-5.9217,-5.9247,-5.9221,-5.9327,-5.9315,-5.9322,-5.9305,-5.931,-5.9314,-5.9304,-5.9224,0,0,0,0,0,-5.8765,-5.8814,-5.8873,-5.8927,-5.895,-5.8994,-5.9025,-5.9044,-5.9092,-5.9111,-5.9151,-5.9198,-5.9249,-5.9282,-5.9332,-5.94,-5.9413,-5.9427,-5.9431,-5.9434,-5.9439,-5.9477,-5.9484,-5.9412,-5.9412,-5.9412,0,0,-5.8775,-5.882,-5.8848,-5.8926,-5.8963,-5.9012,-5.901,-5.9062,-5.9099,-5.9119,-5.9183,-5.9215,-5.9269,-5.9336,-5.9368,-5.9363,-5.9462,-5.9438,-5.944,-5.9444,-5.9481,-5.9488,-5.9494,-5.9414,-5.9414,-5.9413,0,0,-5.8818,-5.8857,-5.8907,-5.8945,-5.9002,-5.9032,-5.9044,-5.9104,-5.9126,-5.9191,-5.9207,-5.9252,-5.9339,-5.9377,-5.9408,-5.9468,-5.9477,-5.9483,-5.9501,-5.9538,-5.9544,-5.9549,-5.9569,-5.9576,-5.9489,-5.9489,-5.9489,0,-5.8823,-5.8898,-5.8931,-5.8983,-5.9016,-5.9038,-5.9089,-5.9124,-5.9194,-5.9217,-5.9211,-5.9322,-5.936,-5.9436,-5.9451,-5.9476,-5.949,-5.9475,-5.9541,-5.9546,-5.9551,-5.9571,-5.9579,-5.9489,-5.9489,-5.9489,-5.9489,0,-5.8901,-5.8953,-5.8986,-5.9054,-5.9092,-5.9143,-5.9183,-5.9218,-5.9235,-5.9265,-5.9331,-5.9379,-5.9438,-5.9459,-5.9475,-5.9538,-5.9533,-5.9534,-5.9521,-5.9558,-5.9577,-5.9585,-5.9489,-5.9489,-5.9489,-5.9489,0,0,-5.8935,-5.9022,-5.9033,-5.9064,-5.913,-5.9171,-5.9224,-5.9283,-5.9311,-5.936,-5.9404,-5.9479,-5.948,-5.9515,-5.9537,-5.9569,-5.9613,-5.9566,-5.9568,-5.9572,-5.9684,-5.9682,-5.969,-5.962,-5.9622,-5.9623,-5.9679,0,-5.8985,-5.9078,-5.911,-5.9188,-5.9236,-5.9259,-5.9304,-5.935,-5.938,-5.9426,-5.9459,-5.9511,-5.9509,-5.9531,-5.9564,-5.96,-5.9636,-5.9597,-5.9661,-5.9663,-5.9645,-5.97,-5.9698,-5.9748,-5.9687,-5.9688,-5.9689,0,-5.9054,-5.9104,-5.9187,-5.9247,-5.9269,-5.9309,-5.9366,-5.941,-5.9462,-5.9482,-5.9522,-5.9542,-5.9598,-5.9584,-5.9661,-5.9635,-5.9663,-5.9685,-5.9688,-5.9693,-5.9676,-5.9705,-5.9764,-5.9771,-5.9701,-5.97,-5.9699,0,-5.9069,-5.9158,-5.9218,-5.9245,-5.9317,-5.9345,-5.9376,-5.9427,-5.9461,-5.9512,-5.9534,-5.959,-5.9621,-5.9664,-5.9698,-5.9686,-5.9773,-5.9762,-5.979,-5.9789,-5.9805,-5.9803,-5.9868,-5.9827,-5.9827,-5.9827,-5.9826,0,-5.912,-5.9169,-5.9226,-5.9263,-5.9319,-5.9356,-5.9411,-5.9444,-5.9489,-5.9533,-5.9557,-5.9598,-5.9642,-5.9689,-5.9717,-5.9776,-5.979,-5.9807,-5.9814,-5.9804,-5.9802,-5.9822,-5.9818,-5.9829,-5.9828,-5.9828,-5.9827,0,-5.9145,-5.9185,-5.9253,-5.9316,-5.9334,-5.9372,-5.9426,-5.9463,-5.9496,-5.9551,-5.9566,-5.9617,-5.9673,-5.9713,-5.9785,-5.9804,-5.9868,-5.9875,-5.985,-5.9853,-5.9878,-5.9874,-5.9956,-5.9968,-5.992,-5.9921,-5.9921,0,-5.9174,-5.9213,-5.9281,-5.9312,-5.9343,-5.9394,-5.9429,-5.9467,-5.9503,-5.9566,-5.9595,-5.9654,-5.9702,-5.9791,-5.9834,-5.989,-5.9898,-5.9923,-5.9906,-5.9895,-5.9896,-5.9893,-5.9897,-5.9924,-5.9924,-5.9925,-5.9925,0,-5.9221,-5.9239,-5.9289,-5.9345,-5.9386,-5.9433,-5.9479,-5.9504,-5.9551,-5.959,-5.9648,-5.9685,-5.976,-5.9817,-5.9878,-5.991,-5.9925,-5.993,-5.994,-5.9929,-5.9912,-5.992,-5.9855,-5.9928,-5.9927,-5.9927,-5.9927,-5.9927,-5.9248,-5.9283,-5.9337,-5.9391,-5.9431,-5.9474,-5.9512,-5.9549,-5.9599,-5.9662,-5.9683,-5.9743,-5.9795,-5.9878,-5.9912,-5.996,-5.9958,-5.9971,-5.9975,-5.9977,-5.9976,-5.9907,-5.9971,-5.9971,-5.9971,-5.9971,-5.9971,0,-5.9295,-5.9331,-5.9381,-5.9446,-5.9488,-5.95,-5.9553,-5.9588,-5.964,-5.9689,-5.9736,-5.9803,-5.9859,-5.9908,-5.9966,-5.9995,-6.0003,-6.0009,-6.0006,-6.0013,-5.9975,-5.996,-6.0001,-6.0001,-6.0001,-6.0001,-6.0001,-6.0001,-5.9325,-5.9385,-5.9409,-5.9489,-5.9525,-5.9584,-5.9613,-5.9653,-5.9692,-5.9766,-5.9813,-5.9844,-5.9892,-5.9955,-6.0007,-6.002,-6.004,-6.0043,-6.0057,-6.002,-6.0016,-6.0013,-5.9999,-6.0047,-6.0048,-6.0092,-6.0092,-6.0093]},{"header":{"parameterUnit":"m.s-1","parameterCategory":1,"la1":30.2991,"la2":30.254,"lo1":-89.0895,"lo2":-89.0444,"dy":0.0017,"dx":0.0017,"nx":28,"ny":28,"refTime":"2024-03-25T03:00:00:Z","depth":0,"parameterNumber":3,"parameterNumberName":"V-component_of_WINDS"},"data":[0,0,0,0,0,0,0,0,0,0,0,0,0,0,0,0,0,0,0,0,0,0,0,0,0,0,0,0,0,0,0,0,0,0,0,0,0,0,0,0,0,0,0,0,0,0,0,0,0,0,0,0,0,0,0,0,0,0,7.9132,7.9132,0,7.9107,7.9107,7.9107,7.9021,7.902,7.9018,7.9016,7.8989,7.899,7.8991,0,0,0,0,0,0,0,0,0,0,0,0,0,7.9105,7.9106,7.9132,7.9132,7.9131,7.9108,7.9107,7.9107,7.9022,7.9019,7.9017,7.9015,7.8988,7.8989,7.8991,0,0,0,0,0,0,0,0,0,0,0,0,0,7.9102,7.9106,7.9132,7.9086,7.9082,7.9108,7.9107,7.9107,7.9022,7.9019,7.9016,7.9014,7.8988,7.8989,7.8991,7.9059,0,0,7.8996,7.8997,0,0,0,0,0,0,0,0,7.9102,7.9103,7.9093,7.9089,7.9084,7.9065,7.9087,7.909,7.9023,7.9045,7.9016,7.9012,7.9016,7.9015,7.9017,7.9057,7.9056,7.8996,7.8997,7.8998,7.8998,0,0,0,0,0,0,0,7.9103,7.9104,7.9122,7.9093,7.9088,7.9067,7.9063,7.9088,7.9047,7.9043,7.9036,7.9035,7.9013,7.9015,7.9016,7.9056,7.8996,7.8997,7.8998,7.8999,7.9154,7.9157,0,0,0,0,0,0,7.911,7.9104,7.9123,7.9121,7.9087,7.907,7.9065,7.9074,7.9046,7.9039,7.9037,7.9031,7.9014,7.9014,7.9014,7.9094,7.8998,7.8999,7.9,7.915,7.9154,7.9158,0,0,0,0,0,0,7.9109,7.9112,7.9124,7.9111,7.9111,7.9073,7.9083,7.9075,7.9077,7.9042,7.9034,7.9047,7.9012,7.9012,7.9049,7.9091,7.9,7.9001,7.9147,7.9152,7.9156,7.9252,0,0,0,0,0,0,7.9109,7.9112,7.9137,7.9113,7.9112,7.9159,7.9086,7.9076,7.908,7.9072,7.905,7.9043,7.901,7.9047,7.9051,7.9092,7.9003,7.9143,7.9149,7.9154,7.9245,7.9259,7.9272,0,0,0,0,0,7.9108,7.9164,7.9139,7.9142,7.9143,7.9162,7.9162,7.9123,7.9084,7.9109,7.9088,7.9044,7.9086,7.9052,7.9055,7.9097,7.914,7.9147,7.9154,7.9239,7.9257,7.9272,0,0,0,0,0,0,7.9193,7.916,7.9132,7.9181,7.9176,7.9147,7.9178,7.9142,7.9146,7.9138,7.9089,7.9084,7.9129,7.9116,7.9078,7.9163,7.9106,7.9114,7.9169,7.9186,7.9199,7.9202,7.9004,0,0,0,0,0,7.9218,7.9237,7.9206,7.9253,7.9252,7.9216,7.9223,7.9194,7.9185,7.9181,7.9162,7.9155,7.9167,7.9175,7.9184,7.9243,7.9238,7.9274,7.9287,7.9299,7.9306,7.9339,7.9355,7.9181,7.9181,7.9181,0,0,7.9269,7.9253,7.9268,7.927,7.9262,7.9283,7.9214,7.9238,7.9253,7.9185,7.9219,7.9205,7.9194,7.9243,7.9264,7.9234,7.9354,7.9308,7.9317,7.9318,7.9348,7.9365,7.9379,7.9186,7.9185,7.9184,0,0,7.9373,7.9363,7.9402,7.9396,7.9385,7.9361,7.9371,7.9349,7.9338,7.9372,7.9322,7.9339,7.936,7.9355,7.9355,7.9462,7.9422,7.9466,7.9537,7.9569,7.9583,7.9595,7.9635,7.9649,7.9474,7.9474,7.9474,0,7.9438,7.9468,7.9426,7.9455,7.9458,7.9399,7.9439,7.9435,7.9428,7.9432,7.9399,7.9426,7.9414,7.9463,7.9489,7.949,7.9501,7.9468,7.9584,7.9596,7.9606,7.9644,7.9659,7.9479,7.9479,7.9478,7.9478,0,7.9549,7.957,7.9603,7.96,7.9607,7.9641,7.9606,7.9618,7.9589,7.9569,7.9606,7.959,7.9596,7.9605,7.9576,7.965,7.9633,7.9593,7.9535,7.9629,7.9664,7.9677,7.9487,7.9485,7.9484,7.9482,0,0,7.9704,7.968,7.9693,7.9692,7.9677,7.9693,7.9725,7.9733,7.9745,7.9742,7.9769,7.979,7.9754,7.9755,7.9725,7.9753,7.9842,7.971,7.9709,7.9737,7.9925,7.9956,7.9973,7.9815,7.9818,7.982,7.9926,0,7.9804,7.9859,7.9824,7.9885,7.9905,7.9851,7.9879,7.9874,7.9857,7.9872,7.9852,7.9869,7.9819,7.982,7.9845,7.9825,7.9879,7.9817,7.9841,7.9842,7.9846,7.9991,8.0023,8.0124,7.9939,7.9942,7.9943,0,7.9928,7.9934,7.9997,7.9981,7.9989,8.0015,8.0021,8.0035,8.0029,8.0014,8.0017,7.9981,8.0012,7.9955,7.9999,7.9958,7.9965,7.9958,7.996,7.9962,7.9899,7.9997,8.0155,8.0171,7.9964,7.9962,7.9961,0,8.0038,8.0061,8.0102,8.0103,8.0085,8.0105,8.0099,8.0089,8.0097,8.0102,8.0107,8.0114,8.0119,8.0126,8.0094,8.0055,8.0142,8.0082,8.0132,8.0133,8.0153,8.0152,8.0316,8.0156,8.0156,8.0156,8.0156,0,8.0154,8.0195,8.0152,8.0178,8.0223,8.0183,8.0229,8.0216,8.0209,8.0232,8.0184,8.0206,8.0161,8.0179,8.0154,8.0195,8.0197,8.0187,8.018,8.0192,8.0194,8.0197,8.0189,8.016,8.0159,8.0158,8.0158,0,8.0284,8.0256,8.0299,8.028,8.0276,8.031,8.0294,8.0317,8.0298,8.0327,8.0332,8.0301,8.032,8.0289,8.0303,8.0286,8.0344,8.0325,8.0347,8.0342,8.0395,8.0391,8.0567,8.0588,8.0414,8.0416,8.0417,0,8.0361,8.0392,8.0377,8.039,8.0387,8.0407,8.0415,8.0378,8.0389,8.0385,8.041,8.0425,8.0435,8.0468,8.0447,8.0459,8.0441,8.0502,8.0442,8.0454,8.0444,8.0443,8.0447,8.0514,8.0516,8.0518,8.0519,0,8.0501,8.0487,8.0501,8.0512,8.0524,8.053,8.0533,8.0546,8.0506,8.0521,8.0541,8.0549,8.0566,8.0582,8.0589,8.0582,8.0545,8.0539,8.0551,8.0564,8.0576,8.0573,8.0382,8.0535,8.0533,8.0532,8.0531,8.0531,8.0607,8.0634,8.0629,8.0647,8.0646,8.065,8.0672,8.0657,8.0673,8.0685,8.0661,8.0688,8.0682,8.0688,8.0686,8.0706,8.0679,8.0696,8.0701,8.0707,8.0716,8.0573,8.0707,8.0706,8.0706,8.0705,8.0705,0,8.0747,8.0741,8.0759,8.0766,8.0781,8.0746,8.0748,8.0763,8.0787,8.0786,8.0798,8.0823,8.0839,8.0821,8.0834,8.0854,8.0837,8.0859,8.0857,8.0857,8.0738,8.0727,8.0872,8.0872,8.0872,8.0872,8.0872,8.0872,8.0821,8.0864,8.085,8.0893,8.0887,8.0914,8.0918,8.0923,8.0922,8.0951,8.0966,8.0954,8.0946,8.0959,8.0973,8.0967,8.0975,8.1003,8.0991,8.0881,8.0865,8.0849,8.0838,8.1004,8.1005,8.1108,8.1109,8.111]}]]